GW5672 Weather Reports


Display with metric or nautical units.
time (UTC)temp
F
wind
direction
speed
MPH
gust
MPH
rain 1hr
in
rain 24hr
in
rain mn
in
humidity
%
barometer
mb
20260906115334 66 44 0.0 1.0 0.00 0.00 0.00 98 1018.0
20260906114833 66 350 2.0 2.0 0.00 0.00 0.00 98 1017.9
20260906114328 65 38 0.0 2.0 0.00 0.00 0.00 98 1017.8
20260906113824 65 30 0.0 2.0 0.00 0.00 0.00 98 1017.8
20260906113323 65 315 0.0 2.0 0.00 0.00 0.00 98 1017.6
20260906112818 65 76 0.0 1.0 0.00 0.00 0.00 98 1017.7
20260906112314 65 38 0.0 1.0 0.00 0.00 0.00 98 1017.5
20260906111814 65 309 0.0 2.0 0.00 0.00 0.00 98 1017.6
20260906111313 65 16 1.0 2.0 0.00 0.00 0.00 98 1017.8
20260906110809 65 8 0.0 1.0 0.00 0.00 0.00 98 1017.7
20260906110305 65 0 0.0 1.0 0.00 0.00 0.00 98 1017.4
20260906105803 65 38 0.0 2.0 0.00 0.00 0.00 98 1017.6
20260906105259 65 66 0.0 1.0 0.00 0.00 0.00 98 1017.6
20260906104754 65 63 0.0 2.0 0.00 0.00 0.00 98 1017.5
20260906104254 65 61 1.0 2.0 0.00 0.00 0.00 98 1017.5
20260906103752 65 315 0.0 2.0 0.00 0.00 0.00 98 1017.5
20260906103251 65 42 0.0 2.0 0.00 0.00 0.00 98 1017.4
20260906102747 65 50 0.0 2.0 0.00 0.00 0.00 98 1017.4
20260906102246 66 0 0.0 2.0 0.00 0.00 0.00 98 1017.3
20260906101741 65 12 1.0 3.0 0.00 0.00 0.00 98 1017.3
20260906101236 65 308 0.0 2.0 0.00 0.00 0.00 98 1017.3
20260906100731 65 33 1.0 2.0 0.00 0.00 0.00 98 1017.4
20260906100231 65 354 0.0 2.0 0.00 0.00 0.00 98 1017.2
20260906095727 66 94 1.0 2.0 0.00 0.00 0.00 98 1017.0
20260906095221 66 359 1.0 2.0 0.00 0.00 0.00 98 1017.3
20260906094720 66 64 1.0 2.0 0.00 0.00 0.00 98 1017.2
20260906094216 66 2 0.0 2.0 0.00 0.00 0.00 98 1017.2
20260906093712 65 8 2.0 2.0 0.00 0.00 0.00 98 1017.1
20260906093208 65 17 1.0 2.0 0.00 0.00 0.00 98 1017.2
20260906092703 65 347 1.0 2.0 0.00 0.00 0.00 98 1017.1
20260906092202 65 331 0.0 2.0 0.00 0.00 0.00 98 1017.0
20260906091658 65 35 0.0 2.0 0.00 0.00 0.00 98 1016.8
20260906091154 66 309 0.0 2.0 0.00 0.00 0.00 98 1016.9
20260906090651 66 352 1.0 2.0 0.00 0.00 0.00 98 1017.0
20260906090150 66 324 0.0 2.0 0.00 0.00 0.00 98 1016.9
20260906085649 66 341 0.0 2.0 0.00 0.00 0.00 97 1017.0
20260906085148 66 6 2.0 2.0 0.00 0.00 0.00 97 1016.9
20260906084643 66 41 1.0 3.0 0.00 0.00 0.00 97 1016.9
20260906084142 66 341 0.0 2.0 0.00 0.00 0.00 97 1017.1
20260906083637 66 339 1.0 2.0 0.00 0.00 0.00 97 1017.0
20260906083132 66 2 0.0 2.0 0.00 0.00 0.00 97 1016.9
20260906082628 66 61 0.0 2.0 0.00 0.00 0.00 97 1016.9
20260906082123 66 21 0.0 2.0 0.00 0.00 0.00 97 1017.0
20260906081619 66 34 0.0 2.0 0.00 0.00 0.00 97 1017.0
20260906081115 66 17 0.0 2.0 0.00 0.00 0.00 97 1016.9
20260906080611 66 60 0.0 1.0 0.00 0.00 0.00 97 1016.8
20260906080107 66 307 0.0 1.0 0.00 0.00 0.00 97 1016.9
20260906075606 66 129 0.0 1.0 0.00 0.00 0.00 97 1016.7
20260906075101 66 89 0.0 0.0 0.00 0.00 0.00 97 1016.7
20260906074556 66 325 0.0 1.0 0.00 0.00 0.00 97 1017.0
20260906074055 66 12 0.0 0.0 0.00 0.00 0.00 97 1016.8
20260906073550 66 53 0.0 1.0 0.00 0.00 0.00 97 1016.9
20260906073046 66 341 0.0 1.0 0.00 0.00 0.00 97 1017.0
20260906072541 66 50 0.0 1.0 0.00 0.00 0.00 97 1016.9
20260906072037 66 306 0.0 1.0 0.00 0.00 0.00 97 1016.8
20260906071533 66 72 0.0 1.0 0.00 0.00 0.00 97 1017.0
20260906071028 66 49 0.0 1.0 0.00 0.00 0.00 97 1017.0
20260906070524 66 55 0.0 0.0 0.00 0.00 0.00 96 1016.9
20260906070014 67 164 0.0 0.0 0.00 0.00 0.00 97 1016.9
20260906065513 67 123 0.0 1.0 0.00 0.00 0.00 96 1017.0
20260906065009 67 52 0.0 0.0 0.00 0.00 0.00 96 1017.1
20260906064504 67 32 0.0 1.0 0.00 0.00 0.00 96 1017.1
20260906063959 67 32 1.0 2.0 0.00 0.00 0.00 96 1016.9
20260906063455 67 310 0.0 1.0 0.00 0.00 0.00 96 1016.9
20260906062955 67 335 0.0 2.0 0.00 0.00 0.00 96 1017.1
20260906062450 67 25 0.0 1.0 0.00 0.00 0.00 96 1017.1
20260906061945 68 294 0.0 2.0 0.00 0.00 0.00 96 1016.9
20260906061442 68 7 0.0 1.0 0.00 0.00 0.00 96 1016.9
20260906060941 68 135 0.0 0.0 0.00 0.00 0.00 96 1016.9
20260906060438 68 37 0.0 0.0 0.00 0.00 0.00 96 1017.1
20260906055935 68 0 0.0 1.0 0.00 0.00 0.00 95 1017.0
20260906055430 68 89 0.0 0.0 0.00 0.00 0.00 95 1016.9
20260906054925 68 31 0.0 1.0 0.00 0.00 0.00 95 1017.0
20260906054420 68 309 0.0 2.0 0.00 0.00 0.00 95 1017.0
20260906053916 68 298 0.0 1.0 0.00 0.00 0.00 95 1017.0
20260906053412 69 309 0.0 1.0 0.00 0.00 0.00 94 1016.8
20260906052908 69 290 0.0 1.0 0.00 0.00 0.00 94 1016.9
20260906052404 69 27 0.0 1.0 0.00 0.00 0.00 94 1016.8
20260906051901 69 336 0.0 2.0 0.00 0.00 0.00 94 1016.7
20260906051400 69 37 0.0 1.0 0.00 0.00 0.00 93 1016.6
20260906050856 70 3 1.0 2.0 0.00 0.00 0.00 93 1016.6
20260906050351 70 5 2.0 2.0 0.00 0.00 0.00 93 1016.7
20260906045850 70 348 2.0 3.0 0.00 0.00 0.00 93 1016.6
20260906045349 70 23 1.0 3.0 0.00 0.00 0.00 92 1016.6
20260906044845 70 86 1.0 3.0 0.00 0.00 0.00 92 1016.2
20260906044345 70 50 2.0 4.0 0.00 0.00 0.00 92 1016.2
20260906043841 70 4 1.0 2.0 0.00 0.00 0.00 92 1016.2
20260906043337 70 357 3.0 4.0 0.00 0.00 0.00 93 1016.3
20260906042832 70 303 1.0 2.0 0.00 0.00 0.00 93 1016.4
20260906042331 70 341 1.0 2.0 0.00 0.00 0.00 93 1016.2
20260906041826 70 345 2.0 3.0 0.00 0.00 0.00 93 1016.1
20260906041322 70 337 2.0 3.0 0.00 0.00 0.00 93 1015.9
20260906040822 70 0 0.0 4.0 0.00 0.00 0.00 93 1015.9
20260906040317 70 350 0.0 2.0 0.00 0.00 0.00 93 1016.0
20260906035813 70 342 3.0 3.0 0.00 0.00 0.00 93 1015.8
20260906035308 70 356 2.0 3.0 0.00 0.00 0.00 93 1016.0
20260906034803 70 131 1.0 2.0 0.00 0.00 0.00 93 1016.0
20260906034303 70 5 0.0 2.0 0.00 0.00 0.00 93 1015.8
20260906033759 70 111 0.0 2.0 0.00 0.00 0.00 93 1016.1
20260906033258 70 339 2.0 3.0 0.00 0.00 0.00 93 1015.9
20260906032755 70 323 0.0 4.0 0.00 0.00 0.00 93 1015.9
20260906032255 69 334 1.0 2.0 0.00 0.00 0.00 93 1015.8
20260906031750 69 353 2.0 3.0 0.00 0.00 0.00 92 1015.9
20260906031247 69 339 2.0 3.0 0.00 0.00 0.00 92 1015.7
20260906030746 69 13 1.0 4.0 0.00 0.00 0.00 92 1015.8
20260906030241 69 0 0.0 3.0 0.00 0.00 0.00 91 1015.7
20260906025741 70 297 5.0 5.0 0.00 0.00 0.00 91 1015.9
20260906025235 70 350 3.0 3.0 0.00 0.00 0.00 91 1015.8
20260906024734 70 357 2.0 4.0 0.00 0.00 0.00 91 1015.9
20260906024233 70 44 0.0 4.0 0.00 0.00 0.00 90 1015.9
20260906023729 70 349 1.0 3.0 0.00 0.00 0.00 90 1015.8
20260906023225 70 347 1.0 3.0 0.00 0.00 0.00 90 1015.8
20260906022720 71 9 1.0 5.0 0.00 0.00 0.00 89 1015.6
20260906022215 71 236 1.0 4.0 0.00 0.00 0.00 89 1015.7
20260906021711 71 69 2.0 4.0 0.00 0.00 0.00 89 1015.7
20260906021210 71 4 2.0 4.0 0.00 0.00 0.00 89 1016.0
20260906020705 71 353 2.0 2.0 0.00 0.00 0.00 89 1015.8
20260906020200 71 89 1.0 2.0 0.00 0.00 0.00 89 1015.8
20260906015700 71 14 1.0 3.0 0.00 0.00 0.00 89 1015.8
20260906015158 71 15 2.0 3.0 0.00 0.00 0.00 89 1015.9
20260906014658 71 89 2.0 2.0 0.00 0.00 0.00 89 1015.9
20260906014154 71 319 0.0 4.0 0.00 0.00 0.00 89 1015.9
20260906013650 71 3 3.0 3.0 0.00 0.00 0.00 89 1015.8
20260906013145 71 116 1.0 4.0 0.00 0.00 0.00 89 1015.8
20260906012645 71 93 4.0 4.0 0.00 0.00 0.00 89 1015.8
20260906012145 71 342 3.0 4.0 0.00 0.00 0.00 89 1015.7
20260906011641 71 339 2.0 2.0 0.00 0.00 0.00 89 1015.8
20260906011136 71 10 3.0 5.0 0.00 0.00 0.00 89 1015.7
20260906010631 71 341 3.0 5.0 0.00 0.00 0.00 89 1015.8
20260906010128 71 17 2.0 4.0 0.00 0.00 0.00 89 1015.7
20260906005627 71 359 4.0 5.0 0.00 0.00 0.00 89 1015.7
20260906005126 71 357 2.0 4.0 0.00 0.00 0.00 89 1015.6
20260906004626 71 66 2.0 6.0 0.00 0.00 0.00 89 1015.3
20260906004120 71 349 2.0 5.0 0.00 0.00 0.00 89 1015.6
20260906003616 72 354 2.0 4.0 0.00 0.00 0.00 88 1015.4
20260906003112 72 121 4.0 5.0 0.00 0.00 0.00 88 1015.4
20260906002612 72 339 3.0 4.0 0.00 0.00 0.00 88 1015.3
20260906002107 72 357 0.0 3.0 0.00 0.00 0.00 87 1015.1
20260906001557 72 70 2.0 6.0 0.00 0.00 0.00 87 1015.3
20260906001056 72 51 2.0 6.0 0.00 0.00 0.00 86 1015.2
20260906000553 72 20 1.0 3.0 0.00 0.00 0.00 86 1015.2
20260906000048 72 116 0.0 4.0 0.00 0.00 0.00 86 1015.3
20260905235547 72 357 2.0 6.0 0.00 0.00 0.00 86 1015.3
20260905235042 72 352 2.0 4.0 0.00 0.00 0.00 86 1015.4
20260905234537 73 348 4.0 6.0 0.00 0.00 0.00 86 1015.2
20260905234032 72 315 4.0 5.0 0.00 0.00 0.00 87 1015.3
20260905233532 72 353 2.0 4.0 0.00 0.00 0.00 87 1015.4
20260905233032 72 331 2.0 6.0 0.00 0.00 0.00 87 1015.4
20260905232528 72 355 2.0 6.0 0.00 0.00 0.00 87 1015.3
20260905232023 72 316 0.0 6.0 0.00 0.00 0.00 87 1015.2
20260905231518 72 357 2.0 5.0 0.00 0.00 0.00 87 1015.3
20260905231015 73 46 2.0 6.0 0.00 0.00 0.00 86 1015.2
20260905230514 73 340 4.0 6.0 0.00 0.00 0.00 86 1015.1
20260905230012 73 351 2.0 9.0 0.00 0.00 0.00 85 1015.1
20260905225507 74 0 3.0 4.0 0.00 0.00 0.00 85 1015.2
20260905225002 74 328 2.0 5.0 0.00 0.00 0.00 84 1015.1
20260905224457 74 345 2.0 6.0 0.00 0.00 0.00 83 1015.0
20260905223956 74 281 1.0 3.0 0.00 0.00 0.00 84 1015.0
20260905223454 75 334 4.0 6.0 0.00 0.00 0.00 82 1015.0
20260905222950 76 6 2.0 6.0 0.00 0.00 0.00 82 1015.0
20260905222449 76 16 1.0 6.0 0.00 0.00 0.00 81 1014.9
20260905221944 76 52 2.0 3.0 0.00 0.00 0.00 81 1014.8
20260905221441 76 303 1.0 10.0 0.00 0.00 0.00 80 1014.9
20260905220937 76 83 2.0 6.0 0.00 0.00 0.00 80 1014.9
20260905220433 77 1 2.0 4.0 0.00 0.00 0.00 80 1014.9
20260905215932 77 128 2.0 6.0 0.00 0.00 0.00 80 1014.7
20260905215427 79 318 2.0 4.0 0.00 0.00 0.00 78 1014.7
20260905214924 81 312 2.0 5.0 0.00 0.00 0.00 74 1014.8
20260905214420 79 312 1.0 4.0 0.00 0.00 0.00 76 1014.6
20260905213919 79 314 0.0 3.0 0.00 0.00 0.00 76 1014.6
20260905213416 80 13 2.0 7.0 0.00 0.00 0.00 74 1014.7
20260905212911 80 358 2.0 5.0 0.00 0.00 0.00 74 1014.5
20260905212406 80 187 1.0 4.0 0.00 0.00 0.00 75 1014.2
20260905211905 78 317 4.0 6.0 0.00 0.00 0.00 78 1014.2
20260905211401 79 317 3.0 4.0 0.00 0.00 0.00 78 1014.3
20260905210857 79 4 2.0 6.0 0.00 0.00 0.00 78 1014.3
20260905210357 79 296 0.0 3.0 0.00 0.00 0.00 79 1014.3
20260905205856 79 302 1.0 5.0 0.00 0.00 0.00 80 1014.3
20260905205351 80 280 1.0 2.0 0.00 0.00 0.00 78 1014.3
20260905204849 82 343 3.0 5.0 0.00 0.00 0.00 74 1014.2
20260905204346 82 31 2.0 4.0 0.00 0.00 0.00 73 1014.1
20260905203844 81 302 2.0 4.0 0.00 0.00 0.00 77 1014.2
20260905203341 80 62 0.0 3.0 0.00 0.00 0.00 77 1014.3
20260905202836 82 2 2.0 4.0 0.00 0.00 0.00 73 1014.2
20260905202331 83 330 3.0 6.0 0.00 0.00 0.00 70 1014.2
20260905201827 81 344 2.0 6.0 0.00 0.00 0.00 70 1014.1
20260905201323 81 275 0.0 7.0 0.00 0.00 0.00 72 1014.2
20260905200822 81 335 2.0 5.0 0.00 0.00 0.00 72 1014.0
20260905200318 81 319 2.0 4.0 0.00 0.00 0.00 72 1014.4
20260905195816 82 313 2.0 3.0 0.00 0.00 0.00 73 1014.3
20260905195311 80 353 1.0 5.0 0.00 0.00 0.00 75 1014.2
20260905194807 81 94 3.0 4.0 0.00 0.00 0.00 74 1014.3
20260905194307 80 349 4.0 4.0 0.00 0.00 0.00 75 1014.4
20260905193806 80 354 2.0 4.0 0.00 0.00 0.00 76 1014.6
20260905193301 79 357 2.0 5.0 0.00 0.00 0.00 77 1014.6
20260905192756 79 343 1.0 3.0 0.00 0.00 0.00 78 1014.8
20260905192252 79 0 0.0 5.0 0.00 0.00 0.00 79 1014.6
20260905191751 78 338 0.0 2.0 0.00 0.00 0.00 80 1014.7
20260905191250 78 329 0.0 6.0 0.00 0.00 0.00 79 1014.6
20260905190749 79 331 3.0 3.0 0.00 0.00 0.00 78 1014.8
20260905190248 78 142 1.0 1.0 0.00 0.00 0.00 82 1014.9
20260905185747 77 353 2.0 3.0 0.00 0.00 0.00 83 1014.9
20260905185242 76 356 2.0 3.0 0.00 0.00 0.00 84 1014.8
20260905184736 76 333 3.0 3.0 0.00 0.00 0.00 84 1014.8
20260905184236 76 5 1.0 3.0 0.00 0.00 0.00 84 1015.1
20260905183735 77 335 1.0 4.0 0.00 0.00 0.00 84 1015.1
20260905183231 77 95 3.0 3.0 0.00 0.00 0.00 84 1015.0
20260905182730 77 354 0.0 4.0 0.00 0.00 0.00 84 1014.9
20260905182230 77 328 0.0 2.0 0.00 0.00 0.00 84 1015.0
20260905181725 77 11 1.0 5.0 0.00 0.00 0.00 83 1015.0
20260905181224 77 307 2.0 6.0 0.00 0.00 0.00 83 1014.8
20260905180719 77 296 1.0 3.0 0.00 0.00 0.00 83 1015.0
20260905180215 77 33 1.0 3.0 0.00 0.00 0.00 83 1014.7
20260905175714 77 86 1.0 3.0 0.00 0.00 0.00 83 1014.9
20260905175209 77 318 1.0 3.0 0.00 0.00 0.00 84 1014.7
20260905174704 77 343 1.0 2.0 0.00 0.00 0.00 84 1014.7
20260905174200 77 357 2.0 4.0 0.00 0.00 0.00 83 1014.6
20260905173656 77 313 3.0 4.0 0.00 0.00 0.00 83 1014.7
20260905173152 77 312 3.0 3.0 0.00 0.00 0.00 83 1014.8
20260905172651 76 348 2.0 4.0 0.00 0.00 0.00 84 1014.7
20260905172145 76 284 2.0 3.0 0.00 0.00 0.00 85 1014.6
20260905171641 76 342 2.0 4.0 0.00 0.00 0.00 85 1014.9
20260905171137 75 324 0.0 4.0 0.00 0.00 0.00 86 1015.1
20260905170634 75 93 1.0 4.0 0.00 0.00 0.00 87 1015.0
20260905170129 75 315 2.0 5.0 0.00 0.00 0.00 87 1015.0
20260905165629 75 308 2.0 4.0 0.00 0.00 0.00 87 1015.1
20260905165124 75 133 0.0 5.0 0.00 0.00 0.00 87 1015.2
20260905164619 75 359 1.0 3.0 0.00 0.00 0.00 88 1015.4
20260905164118 75 352 3.0 4.0 0.00 0.00 0.00 87 1015.2
20260905163615 75 337 1.0 4.0 0.00 0.00 0.00 87 1015.1
20260905163111 75 348 3.0 4.0 0.00 0.00 0.00 87 1015.0
20260905162607 75 337 2.0 4.0 0.00 0.00 0.00 86 1015.1
20260905162106 76 349 2.0 2.0 0.00 0.00 0.00 86 1015.3
20260905161606 76 13 2.0 4.0 0.00 0.00 0.00 86 1015.2
20260905161104 76 318 0.0 4.0 0.00 0.00 0.00 86 1015.1
20260905160603 76 310 2.0 3.0 0.00 0.00 0.00 85 1015.0
20260905155557 76 40 2.0 5.0 0.00 0.00 0.00 86 1015.0
20260905155055 76 347 3.0 5.0 0.00 0.00 0.00 86 1014.8
20260905154551 76 297 2.0 4.0 0.00 0.00 0.00 86 1014.8
20260905154046 76 349 2.0 6.0 0.00 0.00 0.00 86 1014.5
20260905153542 76 19 2.0 6.0 0.00 0.00 0.00 86 1014.8
20260905153042 76 315 0.0 4.0 0.00 0.00 0.00 87 1014.6
20260905152537 75 315 2.0 4.0 0.00 0.00 0.00 88 1014.4
20260905152032 75 287 1.0 4.0 0.00 0.00 0.00 89 1014.5
20260905151527 75 343 0.0 2.0 0.00 0.00 0.00 89 1014.6
20260905151022 75 329 5.0 5.0 0.00 0.00 0.00 88 1014.3
20260905150518 75 308 2.0 3.0 0.00 0.00 0.00 89 1014.5
20260905150015 75 279 2.0 3.0 0.00 0.00 0.00 88 1014.4
20260905145509 76 343 2.0 4.0 0.00 0.00 0.00 87 1014.3
20260905145008 76 3 2.0 4.0 0.00 0.00 0.00 87 1014.4
20260905144504 76 293 2.0 5.0 0.00 0.00 0.00 87 1014.4
20260905144002 76 320 2.0 6.0 0.00 0.00 0.00 87 1014.4
20260905143501 76 255 0.0 4.0 0.00 0.00 0.00 88 1014.5
20260905142956 76 323 1.0 3.0 0.00 0.00 0.00 88 1014.2
20260905142455 76 344 2.0 5.0 0.00 0.00 0.00 88 1014.3
20260905141951 76 185 1.0 7.0 0.00 0.00 0.00 88 1014.1
20260905141445 76 15 2.0 4.0 0.00 0.00 0.00 90 1014.4
20260905140942 75 243 1.0 4.0 0.00 0.00 0.00 91 1014.1
20260905140437 75 330 1.0 4.0 0.00 0.00 0.00 93 1014.1
20260905135935 74 341 3.0 3.0 0.00 0.00 0.00 94 1014.1
20260905135431 73 327 1.0 2.0 0.00 0.00 0.00 94 1014.2
20260905134926 73 180 2.0 5.0 0.00 0.00 0.00 95 1014.3
20260905134426 73 340 3.0 4.0 0.00 0.00 0.00 95 1014.0
20260905133920 73 9 2.0 4.0 0.00 0.00 0.00 95 1014.1
20260905133420 73 271 2.0 4.0 0.00 0.00 0.00 95 1014.1
20260905132920 73 333 3.0 6.0 0.00 0.00 0.00 96 1014.1
20260905132415 73 71 1.0 3.0 0.00 0.00 0.00 96 1014.3
20260905131910 73 262 2.0 3.0 0.00 0.00 0.00 97 1014.5
20260905131406 73 15 0.0 3.0 0.00 0.00 0.00 97 1014.4
20260905130900 73 315 0.0 3.0 0.00 0.00 0.00 97 1014.0
20260905130359 73 352 3.0 5.0 0.00 0.00 0.00 98 1013.8
20260905125855 73 314 0.0 2.0 0.00 0.00 0.00 98 1013.7
20260905125349 73 356 0.0 3.0 0.00 0.00 0.00 98 1013.7
20260905124845 73 330 0.0 2.0 0.00 0.00 0.00 98 1013.8
20260905124342 72 325 1.0 3.0 0.00 0.00 0.00 98 1013.8
20260905123841 72 344 1.0 2.0 0.00 0.00 0.00 98 1013.5
20260905123339 72 119 0.0 3.0 0.00 0.00 0.00 98 1013.6
20260905122838 72 346 2.0 2.0 0.00 0.00 0.00 98 1013.4
20260905122337 72 274 0.0 1.0 0.00 0.00 0.00 98 1013.3
20260905121833 72 295 0.0 2.0 0.00 0.00 0.00 98 1013.1
20260905121330 72 279 0.0 3.0 0.00 0.00 0.00 98 1013.0
20260905120828 72 322 3.0 3.0 0.00 0.00 0.00 98 1013.0
20260905120323 72 87 0.0 2.0 0.00 0.00 0.00 98 1012.8
20260905115818 71 347 0.0 3.0 0.00 0.00 0.00 98 1012.9